Location: Sevilla
(37.3933°N, 5.9839°W)
Time: 04:58:47
(UTC+02:00)

Vanguard 3 - Pass Details

Date: 26 June 2024
Orbit: 508 x 3231 km, 33.4° (Epoch: 15 July)

Event Time Altitude Azimuth Distance (km) Brightness Sun altitude
Rises 08:27:52 0° 223° (SW) 7,002 11.4 14.1°
Reaches altitude 10° 08:33:23 10° 217° (SW) 5,738 11.0 15.1°
Maximum altitude 08:47:50 39° 157° (SSE) 2,921 10.2 17.9°
Drops below altitude 10° 08:57:00 10° 93° (E) 3,681 12.2 19.6°
Sets 08:59:42 0° 85° (E) 4,344 12.4 20.2°
